Weather History for Moses Lake, WA

Change the Weather History Date:

Sunday, May 5, 2013

  Actual Average Record
Temperature  
Mean Temperature 67 °F 56 °F  
Max Temperature 86 °F 70 °F 86 °F (1998)
Min Temperature 47 °F 41 °F 28 °F (1985)
Degree Days  
Heating Degree Days 0 10  
Month to date heating degree days 29 52  
Since 1 July heating degree days 5137 5669  
Cooling Degree Days 2 0  
Month to date cooling degree days 4 0  
Year to date cooling degree days 4 1  
Growing Degree Days 16 (Base 50)    
Moisture  
Dew Point 30 °F    
Average Humidity 31    
Maximum Humidity 50    
Minimum Humidity 11    
Precipitation  
Precipitation 0.00 in 0.02 in 0.07 in (2011)
Month to date precipitation 0.00 0.09  
Year to date precipitation 1.38 3.51  
Sea Level Pressure  
Sea Level Pressure 29.92 in    
Wind  
Wind Speed 11 mph (NNE)    
Max Wind Speed 24 mph    
Max Gust Speed 29 mph    
Visibility 10 miles    
Events      
T = Trace of Precipitation, MM = Missing Value Source: NWS Daily Summary

Daily Weather History Graph

Daily Weather History Graph

Search for Another Location

Airport:

Trip Planner

Search our weather history database for the weather conditions in past years. The results will help you decide how hot, cold, wet, or windy it might be!

Date:

Astronomy

May. 05, 2013 Rise Set
Actual Time 5:34 AM PDT 8:14 PM PDT
Civil Twilight 4:59 AM PDT 8:49 PM PDT
Nautical Twilight 4:15 AM PDT 9:33 PM PDT
Astronomical Twilight 3:24 AM PDT 10:25 PM PDT
Moon 3:24 AM PDT (5/5) 4:04 PM PDT (5/5)
Length of Visible Light 15h 49m
Length of Day
14h 39m
Waning Crescent, 17% of the Moon is Illuminated
May 5
Waning Crescent
May 9
New
May 17
First Quarter
May 24
Full
May 31
Last Quarter

Hourly Weather History & Observations

Time (PDT) Temp. Dew Point Humidity Pressure Visibility Wind Dir Wind Speed Gust Speed Precip Events Conditions
12:52 AM 52.0 °F 32.0 °F 47% 30.04 in 10.0 mi North 10.4 mph - N/A   Clear
1:52 AM 52.0 °F 30.9 °F 45% 30.03 in 10.0 mi North 10.4 mph - N/A   Clear
2:52 AM 48.9 °F 30.9 °F 50% 30.02 in 10.0 mi North 8.1 mph - N/A   Clear
3:52 AM 48.0 °F 30.9 °F 52% 30.01 in 10.0 mi NNE 6.9 mph - N/A   Clear
4:52 AM 48.9 °F 30.0 °F 48% 30.00 in 10.0 mi North 10.4 mph - N/A   Clear
5:52 AM 48.9 °F 30.0 °F 48% 30.00 in 10.0 mi NNE 10.4 mph - N/A   Clear
6:52 AM 53.1 °F 30.9 °F 43% 30.01 in 10.0 mi NNE 6.9 mph - N/A   Clear
7:52 AM 63.0 °F 32.0 °F 31% 30.00 in 10.0 mi NNE 12.7 mph - N/A   Clear
8:52 AM 70.0 °F 32.0 °F 25% 29.99 in 10.0 mi NNE 15.0 mph - N/A   Clear
9:52 AM 75.0 °F 28.0 °F 18% 29.97 in 10.0 mi ENE 17.3 mph 24.2 mph N/A   Clear
10:52 AM 75.9 °F 30.0 °F 19% 29.96 in 10.0 mi East 18.4 mph 25.3 mph N/A   Clear
11:52 AM 80.1 °F 28.9 °F 15% 29.94 in 10.0 mi NE 18.4 mph 28.8 mph N/A   Clear
12:52 PM 82.0 °F 28.0 °F 14% 29.91 in 10.0 mi NE 21.9 mph 26.5 mph N/A   Clear
1:52 PM 82.9 °F 28.0 °F 14% 29.89 in 10.0 mi NE 11.5 mph 21.9 mph N/A   Clear
2:52 PM 84.0 °F 26.1 °F 12% 29.87 in 10.0 mi ENE 11.5 mph - N/A   Clear
3:52 PM 84.9 °F 26.1 °F 12% 29.84 in 10.0 mi East 13.8 mph 19.6 mph N/A   Clear
4:52 PM 84.9 °F 25.0 °F 11% 29.83 in 10.0 mi NE 11.5 mph - N/A   Clear
5:52 PM 84.9 °F 27.0 °F 12% 29.82 in 10.0 mi NE 10.4 mph - N/A   Clear
6:52 PM 82.0 °F 27.0 °F 13% 29.81 in 10.0 mi NE 12.7 mph - N/A   Clear
7:52 PM 78.1 °F 28.0 °F 16% 29.81 in 10.0 mi NE 6.9 mph - N/A   Clear
8:52 PM 66.0 °F 30.9 °F 27% 29.82 in 10.0 mi NNE 4.6 mph - N/A   Clear
9:52 PM 61.0 °F 32.0 °F 34% 29.83 in 10.0 mi North 6.9 mph - N/A   Clear
10:52 PM 55.9 °F 32.0 °F 40% 29.84 in 10.0 mi North 8.1 mph - N/A   Clear
11:52 PM 54.0 °F 32.0 °F 43% 29.84 in 10.0 mi North 5.8 mph - N/A   Clear